Weather History for Palma de Mallorca, Spain

Change the Weather History Date:

Sunday, November 27, 2011

  Actual Average Record
Temperature  
Mean Temperature 56 °F -  
Max Temperature 68 °F 60 °F 73 °F (2000)
Min Temperature 43 °F 42 °F 35 °F (2005)
Degree Days  
Heating Degree Days 10    
Growing Degree Days 6 (Base 50)    
Moisture  
Dew Point 52 °F    
Average Humidity 84    
Maximum Humidity 100    
Minimum Humidity 56    
Precipitation  
Precipitation 0.00 in 0.06 in - ()
Sea Level Pressure  
Sea Level Pressure 30.27 in    
Wind  
Wind Speed 3 mph ()    
Max Wind Speed 13 mph    
Max Gust Speed -    
Visibility 6.5 miles    
Events      
Averages and records for this station are not official NWS values.
T = Trace of Precipitation, MM = Missing Value Source: Averaged Metar Reports

Daily Weather History Graph

Daily Weather History Graph

Search for Another Location

Airport:

Trip Planner

Search our weather history database for the weather conditions in past years. The results will help you decide how hot, cold, wet, or windy it might be!

Date:

Astronomy

Nov. 27, 2011 Rise Set
Actual Time 7:45 AM CET 5:26 PM CET
Civil Twilight 7:16 AM CET 5:56 PM CET
Nautical Twilight 6:43 AM CET 6:29 PM CET
Astronomical Twilight 6:10 AM CET 7:01 PM CET
Moon 9:57 AM CET (11/27) 7:48 PM CET (11/27)
Length of Visible Light 10h 40m
Length of Day
9h 41m
Waxing Crescent, 7% of the Moon is Illuminated
Nov 27
Waxing Crescent
Dec 2
First Quarter
Dec 10
Full
Dec 18
Last Quarter
Dec 24
New

Hourly Weather History & Observations

Time (CET) Temp. Dew Point Humidity Pressure Visibility Wind Dir Wind Speed Gust Speed Precip Events Conditions
12:00 AM 46.4 °F 46.4 °F 100% 30.36 in 6.2 mi Calm Calm - N/A   Partly Cloudy
12:30 AM 46.4 °F 44.6 °F 93% 30.36 in 6.2 mi NE 1.2 mph - N/A   Partly Cloudy
1:00 AM 45 °F 44 °F 97% 30.35 in 9 mi Calm Calm - -   Scattered Clouds
1:00 AM 46.4 °F 44.6 °F 93% 30.36 in 6.2 mi Variable 1.2 mph - N/A   Partly Cloudy
1:30 AM 46.4 °F 44.6 °F 93% 30.33 in 6.2 mi ENE 2.3 mph - N/A   Scattered Clouds
2:00 AM 44.6 °F 44.6 °F 100% 30.33 in 6.2 mi NE 1.2 mph - N/A   Scattered Clouds
2:30 AM 44.6 °F 44.6 °F 100% 30.33 in 6.2 mi Calm Calm - N/A   Scattered Clouds
3:00 AM 44.6 °F 44.6 °F 100% 30.33 in 6.2 mi Calm Calm - N/A   Scattered Clouds
3:30 AM 46.4 °F 46.4 °F 100% 30.33 in 6.2 mi Calm Calm - N/A   Scattered Clouds
4:00 AM 48.2 °F 46.4 °F 93% 30.33 in 6.2 mi Calm Calm - N/A   Mostly Cloudy
4:30 AM 48.2 °F 48.2 °F 100% 30.30 in 6.2 mi ENE 2.3 mph - N/A   Mostly Cloudy
5:00 AM 48.2 °F 48.2 °F 100% 30.30 in 6.2 mi NE 3.5 mph - N/A   Mostly Cloudy
5:30 AM 50.0 °F 48.2 °F 94% 30.30 in 6.2 mi Variable 1.2 mph - N/A   Mostly Cloudy
6:00 AM 50.0 °F 48.2 °F 94% 30.30 in 6.2 mi Calm Calm - N/A   Mostly Cloudy
6:30 AM 50.0 °F 50.0 °F 100% 30.30 in 6.2 mi Calm Calm - N/A   Mostly Cloudy
7:00 AM 50 °F 49 °F 95% 30.30 in 9 mi NE 1.2 mph - -   Mostly Cloudy
7:00 AM 50.0 °F 50.0 °F 100% 30.30 in 6.2 mi North 2.3 mph - N/A   Mostly Cloudy
7:30 AM 50.0 °F 50.0 °F 100% 30.30 in 6.2 mi North 1.2 mph - N/A   Mostly Cloudy
8:00 AM 51.8 °F 50.0 °F 94% 30.30 in 6.2 mi North 1.2 mph - N/A   Mostly Cloudy
8:30 AM 51.8 °F 51.8 °F 100% 30.30 in 6.2 mi NNW 3.5 mph - N/A   Scattered Clouds
9:00 AM 55.4 °F 51.8 °F 88% 30.30 in 6.2 mi Variable 1.2 mph - N/A   Partly Cloudy
9:30 AM 57.2 °F 53.6 °F 88% 30.30 in 6.2 mi ENE 3.5 mph - N/A   Partly Cloudy
10:00 AM 60.8 °F 53.6 °F 77% 30.30 in 6.2 mi ENE 4.6 mph - N/A   Partly Cloudy
10:30 AM 62.6 °F 53.6 °F 72% 30.30 in 6.2 mi NE 5.8 mph - N/A   Partly Cloudy
11:00 AM 62.6 °F 53.6 °F 72% 30.30 in 6.2 mi NE 5.8 mph - N/A   Partly Cloudy
11:30 AM 64.4 °F 51.8 °F 64% 30.30 in 6.2 mi ENE 8.1 mph - N/A   Partly Cloudy
12:00 PM 64.4 °F 51.8 °F 64% 30.30 in 6.2 mi ENE 9.2 mph - N/A   Partly Cloudy
12:30 PM 64.4 °F 51.8 °F 64% 30.30 in 6.2 mi ENE 6.9 mph - N/A   Scattered Clouds
1:00 PM 65 °F 53 °F 56% 30.28 in 22 mi ENE 6.9 mph - -   Partly Cloudy
1:00 PM 64.4 °F 53.6 °F 68% 30.27 in 6.2 mi ENE 6.9 mph - N/A   Scattered Clouds
1:30 PM 66.2 °F 51.8 °F 60% 30.24 in 6.2 mi ENE 6.9 mph - N/A   Scattered Clouds
2:00 PM 68.0 °F 53.6 °F 60% 30.24 in 6.2 mi East 5.8 mph - N/A   Scattered Clouds
2:30 PM 66.2 °F 53.6 °F 64% 30.24 in 6.2 mi ENE 5.8 mph - N/A   Scattered Clouds
3:00 PM 66.2 °F 53.6 °F 64% 30.24 in 6.2 mi NE 8.1 mph - N/A   Scattered Clouds
3:30 PM 66.2 °F 55.4 °F 68% 30.21 in 6.2 mi NE 12.7 mph - N/A   Scattered Clouds
4:00 PM 64.4 °F 55.4 °F 73% 30.21 in 6.2 mi NE 11.5 mph - N/A   Mostly Cloudy
4:30 PM 64.4 °F 55.4 °F 73% 30.21 in 6.2 mi NE 9.2 mph - N/A   Mostly Cloudy
5:00 PM 64.4 °F 57.2 °F 77% 30.21 in 6.2 mi ENE 4.6 mph - N/A   Mostly Cloudy
5:30 PM 62.6 °F 57.2 °F 82% 30.24 in 6.2 mi NE 6.9 mph - N/A   Mostly Cloudy
6:00 PM 62.6 °F 57.2 °F 82% 30.21 in 6.2 mi NE 9.2 mph - N/A   Mostly Cloudy
6:30 PM 60.8 °F 55.4 °F 82% 30.21 in 6.2 mi NNE 5.8 mph - N/A   Scattered Clouds
7:00 PM 59 °F 56 °F 85% 30.23 in 16 mi NE 5.8 mph - -   Scattered Clouds
7:00 PM 59.0 °F 55.4 °F 88% 30.21 in 6.2 mi NE 5.8 mph - N/A   Scattered Clouds
7:30 PM 60.8 °F 57.2 °F 88% 30.21 in 6.2 mi NE 9.2 mph - N/A   Mostly Cloudy
8:00 PM 62.6 °F 55.4 °F 77% 30.24 in 6.2 mi NE 6.9 mph - N/A   Mostly Cloudy
8:30 PM 60.8 °F 55.4 °F 82% 30.24 in 6.2 mi ENE 4.6 mph - N/A   Mostly Cloudy
9:00 PM 60.8 °F 55.4 °F 82% 30.21 in 6.2 mi NE 9.2 mph - N/A   Mostly Cloudy
9:30 PM 60.8 °F 55.4 °F 82% 30.21 in 6.2 mi NE 9.2 mph - N/A   Scattered Clouds
10:00 PM 62.6 °F 57.2 °F 82% 30.21 in 6.2 mi ENE 5.8 mph - N/A   Scattered Clouds
10:30 PM 62.6 °F 57.2 °F 82% 30.24 in 6.2 mi NE 8.1 mph - N/A   Scattered Clouds
11:00 PM 60.8 °F 57.2 °F 88% 30.21 in 6.2 mi NE 6.9 mph - N/A   Scattered Clouds
11:30 PM 60.8 °F 59.0 °F 94% 30.21 in 6.2 mi NE 6.9 mph - N/A   Scattered Clouds